Regional Weather Roundup
Issued by NWS Cleveland, OH

Home | Current Version | Previous Version | Text Only | Print | Product List | Glossary Off
Versions: 1 2 3 4 5 6 7 8 9 10 11 12 13 14 15 16 17 18 19 20 21 22 23 24 25 26 27 28 29 30 31 32 33 34 35 36 37 38 39 40 41 42 43 44 45 46 47 48 49 50

000
ASUS41 KCLE 251500
RWRCLE
OHIO REGIONAL WEATHER ROUNDUP
NATIONAL WEATHER SERVICE WILMINGTON, OH
1100 AM EDT TUE APR 25 2017

NOTE: "FAIR" INDICATES FEW OR NO CLOUDS BELOW 12,000 FEET WITH NO
SIGNIFICANT WEATHER AND/OR OBSTRUCTIONS TO VISIBILITY.

OHZ001>008-015>018-024>027-034-035-043-044-251600-
   NORTHWEST OHIO

CITY           SKY/WX    TMP DP  RH WIND       PRES   REMARKS
DEFIANCE       CLOUDY    60  49  66 SE8       29.83F
FINDLAY        CLOUDY    64  50  60 SE10      29.83S
TOLEDO EXPRESS CLOUDY    58  49  72 E8        29.85S
TOLEDO EXEC    CLOUDY    60  51  72 SE8       29.86S
LIMA           CLOUDY    63  51  65 E7        29.83S
$$

OHZ009>014-019>023-028>033-038-089-251600-
   NORTHEAST OHIO

CITY           SKY/WX    TMP DP  RH WIND       PRES   REMARKS
CLE-HOPKINS    CLOUDY    61  51  70 SE9       29.91S
CLE-LAKEFRONT  CLOUDY    59  51  75 SE10      29.88F
CUY CO. ARPT   CLOUDY    59  52  77 SE14      29.90F
LORAIN-ELYRIA  CLOUDY    60  49  66 SE14      29.88F
ASHTABULA      FAIR      57  51  80 SE10G17   29.93F
AKRON-CANTON   CLOUDY    57  51  80 SE10      29.89F
WOOSTER        NOT AVBL
MANSFIELD      CLOUDY    58  50  75 E13       29.87S
YOUNGSTOWN     CLOUDY    54  50  86 E13G21    29.92F
$$

OHZ042-051>053-060>062-070>072-077>081-251600-
  SOUTHWEST OHIO

CITY           SKY/WX    TMP DP  RH WIND       PRES   REMARKS
CINC-COVINGTON FAIR      64  54  69 S7        29.81F
CINC-LUNKEN    FAIR      64  57  78 CALM      29.82S
HAMILTON       FAIR      65  54  67 NE3       29.82F
DAYTON         NOT AVBL
WRIGHT-PAT AFB LGT RAIN  65  53  65 E6        29.82F
DAYTON GENERAL PTSUNNY   64  53  67 VRB5      29.82S
WILMINGTON     FAIR      65  54  67 SE6       29.82S
$$

OHZ036-037-039>041-045>050-054>059-063>069-073>076-082>088-251600-
  CENTRAL AND SOUTHEAST OHIO

CITY           SKY/WX    TMP DP  RH WIND       PRES   REMARKS
COLUMBUS       FAIR      65  52  62 E10       29.83F
OSU AIRPORT    FAIR      64  52  64 E9        29.84F
BOLTON FIELD   MOSUNNY   63  52  67 SE5       29.84F
RICKENBACK AFB NOT AVBL
NEWARK         CLOUDY    64  50  60 E7        29.84F
MARION         CLOUDY    63  50  62 SE10      29.85F
LANCASTER      FAIR      66  52  60 E7        29.84F
ZANESVILLE     FAIR      63  52  67 E7        29.85F
NEW PHILLY     FAIR      60  54  80 SE8       29.88F
$$




USA.gov is the U.S. government's official web portal to all federal, state and local government web resources and services.